Regional Weather Roundup
Issued by NWS

Home | Current Version | Previous Version | Graphics & Text | Print | Product List | Glossary On
Versions: 1 2 3 4 5 6 7 8 9 10 11 12 13 14 15 16 17 18 19 20 21 22 23 24 25 26 27 28 29 30 31 32 33 34 35 36 37 38 39 40 41 42 43 44 45 46 47 48 49 50
000
ASUS43 KBIS 212010
RWRND

NORTH DAKOTA REGIONAL WEATHER ROUNDUP
NATIONAL WEATHER SERVICE BISMARCK ND
300 PM CDT SUN SEP 21 2014

NOTE: "FAIR" INDICATES FEW OR NO CLOUDS BELOW 12,000 FEET WITH NO
SIGNIFICANT WEATHER AND/OR OBSTRUCTIONS TO VISIBILITY.


NDZ001>003-009>011-017-212100-
NORTHWEST NORTH DAKOTA

CITY           SKY/WX    TMP DP  RH WIND       PRES   REMARKS
WILLISTON      SUNNY     72  38  29 SW10      30.24F
MINOT          SUNNY     71  40  32 NW8       30.23F
MINOT AFB      SUNNY     70  41  35 NW8       30.22F
$$

NDZ018>021-031>035-040>046-212100-
SOUTHWEST NORTH DAKOTA

CITY           SKY/WX    TMP DP  RH WIND       PRES   REMARKS
BISMARCK       SUNNY     74  43  32 NW6       30.26F
DICKINSON      SUNNY     70  38  31 E5        30.26F
GARRISON         N/A     71  42  35 NW6       30.24F
HETTINGER ARPT SUNNY     69  37  30 VRB3      30.29F
$$

NDZ004>008-012>016-024-026-027-054-212100-
NORTHEAST NORTH DAKOTA

CITY           SKY/WX    TMP DP  RH WIND       PRES   REMARKS
GRAND FORKS    PTSUNNY   64  50  60 NW8       30.21F
GRND FRKS AFB  CLOUDY    65  52  64 NE9       30.22F
DEVILS LAKE    MOSUNNY   64  46  52 W5        30.21F
$$

NDZ022-023-025-028>030-036>039-047>053-212100-
SOUTHEAST NORTH DAKOTA

CITY           SKY/WX    TMP DP  RH WIND       PRES   REMARKS
FARGO          PTSUNNY   64  51  62 NE10      30.22F
JAMESTOWN      MOSUNNY   66  47  50 NW9       30.23F
$$




USA.gov is the U.S. government's official web portal to all federal, state and local government web resources and services.